This is the latest recevied weather packets stored in our database for station/object KD8OZS. If no packets are shown the sender has not sent any weather packets the latest 10 day(s).
| Time | Temp. | Humidity | Pressure | Rain* | Wind** | Luminosity | Snow |
|---|---|---|---|---|---|---|---|
| 1778112350 | 10.56° C | 67% | 1005.3 hPa | 0 mm | - | 7 W/m² | - |
| 1778112046 | 10.56° C | 65% | 1005.3 hPa | 0 mm | - | 10 W/m² | - |
| 1778111744 | 11.11° C | 64% | 1005.5 hPa | 0 mm | - | 11 W/m² | - |
| 1778111439 | 11.11° C | 61% | 1005.4 hPa | 0 mm | - | 14 W/m² | - |
| 1778111137 | 11.11° C | 63% | 1005.4 hPa | 0 mm | - | 18 W/m² | - |
| 1778110834 | 11.11° C | 62% | 1005.5 hPa | 0 mm | - | 21 W/m² | - |
| 1778110531 | 11.11° C | 60% | 1005.4 hPa | 0 mm | - | 24 W/m² | - |
| 1778110227 | 11.11° C | 61% | 1005.6 hPa | 0 mm | - | 26 W/m² | - |
| 1778109924 | 11.11° C | 61% | 1005.4 hPa | 0 mm | - | 27 W/m² | - |
| 1778109619 | 11.67° C | 59% | 1005.8 hPa | 0 mm | - | 29 W/m² | - |
| 1778109317 | 11.67° C | 61% | 1005.6 hPa | 0 mm | - | 29 W/m² | - |
| 1778109015 | 11.67° C | 62% | 1005.3 hPa | 0 mm | - | 39 W/m² | - |
| 1778108711 | 11.67° C | 60% | 1005.5 hPa | 0 mm | - | 44 W/m² | - |
| 1778108409 | 11.67° C | 59% | 1005.4 hPa | 0 mm | - | 41 W/m² | - |
| 1778108104 | 11.67° C | 57% | 1005.5 hPa | 0 mm | - | 48 W/m² | - |
| 1778107795 | 11.67° C | 55% | 1005.5 hPa | 0 mm | - | 55 W/m² | - |
| 1778107492 | 11.67° C | 57% | 1005.2 hPa | 0 mm | - | 58 W/m² | - |
| 1778107189 | 11.67° C | 59% | 1005.5 hPa | 0 mm | - | 56 W/m² | - |
| 1778106885 | 11.67° C | 58% | 1005.4 hPa | 0 mm | - | 54 W/m² | - |
| 1778106582 | 12.22° C | 59% | 1005.3 hPa | 0 mm | - | 51 W/m² | - |
| 1778106279 | 12.22° C | 58% | 1005.4 hPa | 0 mm | - | 52 W/m² | - |
| 1778105975 | 12.22° C | 57% | 1005.4 hPa | 0 mm | - | 75 W/m² | - |
| 1778105672 | 12.22° C | 57% | 1005.2 hPa | 0 mm | - | 62 W/m² | - |
| 1778105371 | 12.22° C | 57% | 1005.1 hPa | 0 mm | - | 69 W/m² | - |
| 1778105066 | 12.22° C | 54% | 1004.8 hPa | 0 mm | - | 71 W/m² | - |
* Rain latest hour (hover to see other rain measurements)
** Current wind speed in m/s (hover to see current wind gust speed)